Regional Weather Roundup
Issued by NWS

Home | Current Version | Previous Version | Text Only | Print | Product List | Glossary Off
Versions: 1 2 3 4 5 6 7 8 9 10 11 12 13 14 15 16 17 18 19 20 21 22 23 24 25 26 27 28 29 30 31 32 33 34 35 36 37 38 39 40 41 42 43 44 45 46 47 48 49 50

000
ASUS43 KLOT 311302
RWRIL

ILLINOIS REGIONAL WEATHER ROUNDUP
NATIONAL WEATHER SERVICE CHICAGO/ROMEOVILLE IL
800 AM CDT MON AUG 31 2015

NOTE: "FAIR" INDICATES FEW OR NO CLOUDS BELOW 12,000 FEET WITH NO
SIGNIFICANT WEATHER AND/OR OBSTRUCTIONS TO VISIBILITY.

* THESE STATIONS ARE NOT UNDER NWS QUALITY CONTROL. THEY ALSO MAY NOT
  REPORT WEATHER SUCH AS PRECIPITATION OR FOG.

ILZ001-002-007-009-015-016-024-311400-
NORTHWEST ILLINOIS

CITY           SKY/WX    TMP DP  RH WIND       PRES   REMARKS
MOLINE         SUNNY     65  62  90 CALM      30.05R FOG
STERLING*        N/A    N/A N/A N/A MISG        N/A
$$

ILZ003-004-008-010-011-017-018-311400-
NORTH CENTRAL ILLINOIS

CITY           SKY/WX    TMP DP  RH WIND       PRES   REMARKS
ROCKFORD       SUNNY     62  60  93 CALM      30.08S FOG
FREEPORT*      MOSUNNY   58  58  99 CALM      30.09R FOG
$$

ILZ005-006-012>014-019>023-311400-
NORTHEAST ILLINOIS

CITY           SKY/WX    TMP DP  RH WIND       PRES   REMARKS
CHICAGO-OHARE  MOSUNNY   63  63 100 CALM      30.07R FOG
CHICAGO-MIDWAY MOSUNNY   68  64  87 CALM      30.07R FOG
AURORA         MOSUNNY   62  61  96 CALM      30.08S FOG
LANSING*       CLOUDY    65  65 100 CALM      30.08S VSB<1/4
WAUKEGAN       FOG       62  62 100 CALM      30.07R VSB 1
DUPAGE AIRPORT MOSUNNY   62  60  93 CALM      30.07S FOG
WHEELING       FOG       62  61  96 CALM      30.08S VSB 1/4
NORTHERLY ISL    N/A     68  65  90 W3          N/A
$$

LMZ740>746-311400-
SOUTHERN LAKE MICHIGAN

STATION/POSITION SKY/WX   TEMP    WIND        PRES    VSBY  WAVE
                          AIR SEA DIR/SP/G                  HT/PER
                          (F)     (DEG/KT/KT) (MB)    (MI)  (FT/S)
SOUTHERN BUOY              68 68  220/  4/  4 1017.8R         0
WILMETTE HARBOR            58 59   80/  2/  2   N/A           0
HARRISON CRIB              67     300/  3/  3   N/A
BURNHAM HARBOR             69     260/  2/  5   N/A
MICHIGAN CITY              67     210/  4/  4   N/A
MICHIGAN CITY 6N           69 71  230/  2/  2   N/A           0
ST. JOSEPH                 68 71  220/  4/  4   N/A           0
$$

ILZ025>027-034>036-040-047-049-050-058-095>099-311400-
WEST-CENTRAL ILLINOIS

CITY           SKY/WX    TMP DP  RH WIND       PRES   REMARKS
QUINCY         SUNNY     72  70  93 S5        30.04S FOG
$$

ILZ028>032-037-038-041>044-048-051>054-059>061-311400-
CENTRAL ILLINOIS

CITY           SKY/WX    TMP DP  RH WIND       PRES   REMARKS
DECATUR        SUNNY     72  68  87 S3        30.08R
PEORIA         SUNNY     72  67  84 CALM      30.06R HAZE
SPRINGFIELD    SUNNY     73  71  93 S3        30.06R
TAYLORVILLE    NOT AVBL
$$

ILZ033-039-045-046-055>057-062-063-311400-
EAST-CENTRAL ILLINOIS

CITY           SKY/WX    TMP DP  RH WIND       PRES   REMARKS
CHAMPAIGN      SUNNY     71  69  93 S3        30.09R FOG
MATTOON        PTSUNNY   70  67  90 S7        30.09R
$$

ILZ079-100>102-311400-
SOUTHWEST ILLINOIS

CITY           SKY/WX    TMP DP  RH WIND       PRES   REMARKS
BELLEVILLE     SUNNY     71  71 100 VRB1      30.07R
CAHOKIA*       PTSUNNY   74  69  85 S7        30.07R
SPARTA*        CLOUDY    72  69  90 S8        30.10R
$$

ILZ064>066-069>071-074>076-080>082-084>086-088>090-092>094-311400-
SOUTH-CENTRAL ILLINOIS

CITY           SKY/WX    TMP DP  RH WIND       PRES   REMARKS
CARBONDALE     MOSUNNY   71  68  90 S7        30.10R
MARION         MOSUNNY   72  70  94 S6        30.12R
MT. VERNON     SUNNY     72  64  78 S6        30.11R
$$

ILZ067-068-072-073-078-083-087-091-311400-
SOUTHEAST ILLINOIS

CITY           SKY/WX    TMP DP  RH WIND       PRES   REMARKS
LAWRENCEVILLE  SUNNY     69  68  96 S7        30.11R FOG
FLORA*         SUNNY     69  67  94 S6        30.10R
ROBINSON*      MOSUNNY   69  68  95 S3        30.12R
$$

ABBREVIATIONS USED IN REMARKS
   TC - TEMPERATURE IN CELSIUS
  WCI - WIND CHILL INDEX
   HX - HEAT INDEX
  VSB - VISIBILITY
$$



USA.gov is the U.S. government's official web portal to all federal, state and local government web resources and services.